Location: Cran-Gévrier
(45.9039°N, 6.1012°E)
Time: 20:27:15
(UTC+00:00)

STRAND 1 - Pass Details

Date: 13 December 2023
Orbit: 766 x 778 km, 98.4° (Epoch: 28 February)

Event Time Altitude Azimuth Distance (km) Brightness Sun altitude
Exits shadow 20:04:46 14° 286° (WNW) 2,077 ? -43.1°
Drops below altitude 10° 20:06:12 10° 270° (W) 2,312 ? -43.3°
Sets 20:09:30 0° 248° (WSW) 3,236 ? -43.9°
